This demonstration page uses our WeatherBlox Daily Observations layout. Learn more.

Left ArrowRight Arrow

Hourly Observations for August 14, 2019

Temp ( °F °C ) Dew Point ( °F °C ) Humidity (%) Winds ( mph kmh ) Pressure ( in mb ) Visibility ( mi km ) Precip ( " mm )
12:53 am 00:53 Clear 80 26.7 62 16.7 54 54 WSW 12 19 29.88 1012 10 16 0.00 0.00
1:53 am 01:53 Clear 81 27.2 61 16.1 51 51 NW 7 11 29.87 1012 10 16 0.00 0.00
2:53 am 02:53 Clear 81 27.2 60 15.6 49 49 N 5 7 29.87 1011 10 16 0.00 0.00
3:53 am 03:53 Clear 80 26.7 60 15.6 51 51 ENE 5 7 29.87 1012 10 16 0.00 0.00
4:53 am 04:53 Clear 78 25.6 60 15.6 54 54 S 5 7 29.87 1011 10 16 0.00 0.00
5:53 am 05:53 Clear 76 24.4 60 15.6 58 58 Calm 29.88 1012 10 16 0.00 0.00
6:53 am 06:53 Clear 75 23.9 61 16.1 62 62 ENE 8 13 29.91 1013 10 16 0.00 0.00
7:53 am 07:53 Sunny 77 25 63 17.2 62 62 NE 6 9 29.93 1014 10 16 0.00 0.00
8:53 am 08:53 Sunny 80 26.7 67 19.4 64 64 ENE 16 26 29.96 1015 10 16 0.00 0.00
9:53 am 09:53 Sunny 83 28.3 66 18.9 57 57 ENE 13 20 29.99 1016 10 16 0.00 0.00
10:53 am 10:53 Sunny 87 30.6 66 18.9 50 50 ENE 15 24 30.01 1016 10 16 0.00 0.00
11:53 am 11:53 Partly Cloudy 89 31.7 65 18.3 45 45 ENE 14 22 30.01 1016 10 16 0.00 0.00
12:53 pm 12:53 Sunny 93 33.9 64 17.8 38 38 NE 17 28 30.00 1016 10 16 0.00 0.00
1:53 pm 13:53 Sunny 93 33.9 63 17.2 37 37 ENE 16 26 29.97 1015 10 16 0.00 0.00
2:53 pm 14:53 Sunny 95 35 62 16.7 34 34 VRB 6 9 29.92 1013 10 16 0.00 0.00
3:53 pm 15:53 Mostly Cloudy 96 35.6 61 16.1 31 31 undefined N/A 29.90 1013 10 16 0.00 0.00
4:53 pm 16:53 Sunny 96 35.6 60 15.6 30 30 VRB 7 11 29.88 1012 10 16 0.00 0.00
5:06 pm 17:06 Partly Cloudy with Nearby Thunderstorms 96 35.6 60 15.6 30 30 ESE 8 13 29.77 1008 10 16 0.00 0.00
5:21 pm 17:21 Partly Cloudy 96 35.6 60 15.6 30 30 NE 10 17 29.76 1008 10 16 0.00 0.00
5:32 pm 17:32 Partly Cloudy with Nearby Thunderstorms 96 35.6 59 15 29 29 ENE 10 17 29.75 1008 10 16 0.00 0.00
5:44 pm 17:44 Partly Cloudy with Thunderstorms 96 35.6 59 15 29 29 ENE 12 19 29.75 1008 10 16 0.00 0.00
5:53 pm 17:53 Mostly Cloudy with Nearby Thunderstorms 96 35.6 60 15.6 30 30 E 13 20 29.85 1011 10 16 0.00 0.00
6:07 pm 18:07 Cloudy with Nearby Thunderstorms 85 29.4 63 17.2 48 48 SSW 14 22 29.82 1010 10 16 0.00 0.00
6:53 pm 18:53 Mostly Cloudy with Nearby Thunderstorms 79 26.1 63 17.2 58 58 SW 20 31 29.91 1013 10 16 0.00 0.00
7:18 pm 19:18 Mostly Cloudy 79 26.1 64 17.8 60 60 S 12 19 29.87 1012 10 16 0.00 0.00
7:53 pm 19:53 Sunny 80 26.7 67 19.4 64 64 S 9 15 29.90 1013 10 16 0.00 0.00
8:53 pm 20:53 Clear 81 27.2 67 19.4 62 62 S 10 17 29.92 1013 10 16 0.00 0.00
9:53 pm 21:53 Clear 81 27.2 67 19.4 62 62 SE 7 11 29.94 1014 10 16 0.00 0.00
10:53 pm 22:53 Clear 81 27.2 66 18.9 61 61 Calm 29.96 1014 10 16 0.00 0.00
11:53 pm 23:53 Clear 79 26.1 66 18.9 65 65 NE 5 7 29.96 1015 10 16 0.00 0.00

Powered by AerisWeather